[[{"header":{"parameterUnit":"m.s-1","parameterCategory":1,"la1":30.2991,"la2":30.254,"lo1":-89.0895,"lo2":-89.0444,"dy":0.0017,"dx":0.0017,"nx":28,"ny":28,"refTime":"2024-09-26T09:00:00:Z","depth":0,"parameterNumber":2,"parameterNumberName":"U-component_of_WINDS"},"data":[0,0,0,0,0,0,0,0,0,0,0,0,0,0,0,0,0,0,0,0,0,0,0,0,0,0,0,0,0,0,0,0,0,0,0,0,0,0,0,0,0,0,0,0,0,0,0,0,0,0,0,0,0,0,0,0,0,0,6.0877,6.0878,0,6.0953,6.0954,6.0955,6.0898,6.0896,6.0893,6.0891,6.0971,6.0975,6.0979,0,0,0,0,0,0,0,0,0,0,0,0,0,6.0686,6.0689,6.0877,6.0878,6.0879,6.0953,6.0954,6.0955,6.0899,6.0896,6.0893,6.089,6.0969,6.0974,6.098,0,0,0,0,0,0,0,0,0,0,0,0,0,6.0766,6.0691,6.0877,6.086,6.0859,6.0953,6.0954,6.0955,6.0899,6.0896,6.0892,6.0888,6.0967,6.0974,6.098,6.1096,0,0,6.1001,6.1004,0,0,0,0,0,0,0,0,6.0761,6.0773,6.0861,6.0861,6.086,6.0912,6.0916,6.1002,6.09,6.0884,6.0891,6.0887,6.0954,6.0962,6.0984,6.1099,6.1103,6.1001,6.1005,6.1008,6.101,0,0,0,0,0,0,0,6.0756,6.0769,6.0907,6.0863,6.0862,6.0849,6.0856,6.0932,6.0939,6.0885,6.0881,6.0891,6.0953,6.0978,6.0986,6.1104,6.1001,6.1007,6.1011,6.1014,6.132,6.1324,0,0,0,0,0,0,6.0752,6.0765,6.0905,6.0909,6.0801,6.0855,6.0864,6.0899,6.0938,6.094,6.0894,6.0888,6.0968,6.0978,6.0988,6.1127,6.1008,6.1014,6.1018,6.1316,6.1321,6.1326,0,0,0,0,0,0,6.0748,6.0765,6.0901,6.0836,6.0853,6.0863,6.0903,6.0903,6.0927,6.0945,6.0946,6.0918,6.0966,6.0979,6.107,6.1129,6.1017,6.1023,6.1311,6.1318,6.1323,6.1406,0,0,0,0,0,0,6.0743,6.0764,6.0807,6.0838,6.0856,6.0981,6.0907,6.0907,6.0939,6.0932,6.0967,6.097,6.0964,6.106,6.1077,6.1136,6.1029,6.1306,6.1314,6.1321,6.1398,6.1414,6.1428,0,0,0,0,0,6.0736,6.0827,6.0809,6.0826,6.091,6.0985,6.0995,6.0987,6.0944,6.0988,6.0999,6.0969,6.112,6.107,6.1088,6.1151,6.1302,6.1312,6.1321,6.1391,6.1411,6.1428,0,0,0,0,0,0,6.0803,6.083,6.0811,6.0915,6.0948,6.0975,6.103,6.1007,6.1054,6.1045,6.1033,6.1041,6.1137,6.1153,6.1097,6.1266,6.1204,6.1218,6.1252,6.1271,6.1286,6.128,6.1034,0,0,0,0,0,6.0829,6.0887,6.0908,6.0997,6.1015,6.102,6.1052,6.1042,6.1076,6.109,6.1108,6.1143,6.1199,6.1235,6.1287,6.14,6.1408,6.1452,6.1467,6.1479,6.1491,6.1554,6.1574,6.1356,6.1356,6.1356,0,0,6.0885,6.0907,6.0944,6.1011,6.1036,6.1097,6.1032,6.1098,6.1144,6.11,6.1187,6.1202,6.124,6.1343,6.1389,6.1359,6.1553,6.1491,6.1501,6.1506,6.1566,6.1586,6.1605,6.1363,6.1362,6.1361,0,0,6.1018,6.104,6.1118,6.1144,6.1182,6.1185,6.1204,6.1235,6.1243,6.133,6.13,6.1354,6.1449,6.1478,6.1506,6.1652,6.1626,6.1669,6.1748,6.181,6.1827,6.1842,6.1896,6.1915,6.1681,6.1681,6.1681,0,6.1083,6.1172,6.1161,6.123,6.1261,6.1225,6.1304,6.133,6.1384,6.1407,6.1372,6.1493,6.1515,6.1625,6.1661,6.1684,6.1706,6.1665,6.1825,6.184,6.1854,6.1905,6.1926,6.1686,6.1686,6.1685,6.1685,0,6.1251,6.1314,6.1372,6.1425,6.1463,6.1537,6.1537,6.1577,6.1565,6.1572,6.1662,6.1689,6.1747,6.1772,6.176,6.1881,6.1861,6.1826,6.1765,6.188,6.1928,6.1948,6.1694,6.1692,6.169,6.1689,0,0,6.1428,6.1474,6.1496,6.152,6.156,6.1609,6.1682,6.1738,6.1773,6.1812,6.1874,6.1957,6.1925,6.1956,6.1948,6.2001,6.2118,6.196,6.1961,6.1989,6.2255,6.2282,6.2304,6.2101,6.2104,6.2107,6.2252,0,6.1564,6.1691,6.1683,6.1803,6.1862,6.1829,6.1893,6.1926,6.1935,6.1987,6.1997,6.2056,6.2009,6.2028,6.208,6.2093,6.2171,6.2082,6.216,6.2163,6.2152,6.2329,6.2357,6.2492,6.227,6.2274,6.2276,0,6.174,6.1785,6.191,6.1943,6.1968,6.2025,6.2077,6.2127,6.2164,6.2167,6.2202,6.2186,6.2261,6.2198,6.2303,6.2242,6.2274,6.2285,6.229,6.2298,6.2227,6.2343,6.2535,6.2556,6.2305,6.2303,6.23,0,6.1858,6.195,6.2037,6.2059,6.2099,6.2141,6.216,6.2192,6.2227,6.2273,6.2296,6.235,6.238,6.2423,6.2422,6.2375,6.2529,6.2464,6.2535,6.2535,6.2569,6.2567,6.277,6.2588,6.2587,6.2587,6.2587,0,6.2011,6.209,6.2091,6.2145,6.2233,6.2224,6.2312,6.2326,6.2356,6.2413,6.2388,6.2442,6.2437,6.2493,6.2492,6.258,6.2594,6.2599,6.2599,6.2602,6.2602,6.2623,6.2614,6.2592,6.2591,6.259,6.2589,0,6.2159,6.2162,6.2256,6.2287,6.2296,6.236,6.2386,6.2439,6.2446,6.2519,6.2535,6.2547,6.2611,6.2614,6.2688,6.2688,6.2795,6.2784,6.2783,6.2781,6.2852,6.2846,6.3077,6.3108,6.2904,6.2906,6.2907,0,6.2257,6.2317,6.2354,6.2391,6.2412,6.2471,6.2506,6.25,6.2539,6.2586,6.2633,6.2694,6.2743,6.2848,6.2864,6.292,6.291,6.2988,6.2919,6.2921,6.2913,6.291,6.2917,6.3001,6.3004,6.3005,6.3007,0,6.2432,6.2431,6.2483,6.2536,6.258,6.2621,6.266,6.2692,6.269,6.2735,6.28,6.2838,6.2914,6.2976,6.3032,6.3052,6.3031,6.3028,6.3048,6.3053,6.3051,6.3054,6.2821,6.3023,6.3022,6.302,6.302,6.3019,6.2558,6.2611,6.2646,6.2705,6.2734,6.2771,6.2822,6.2835,6.2889,6.295,6.2944,6.3017,6.3053,6.3126,6.3151,6.3209,6.3182,6.321,6.3218,6.3225,6.3233,6.3041,6.3219,6.3218,6.3218,6.3217,6.3217,0,6.2733,6.2754,6.2809,6.2864,6.2911,6.2886,6.2928,6.2969,6.3034,6.3069,6.3118,6.3194,6.3255,6.3276,6.3335,6.3377,6.3369,6.3393,6.3391,6.3396,6.3252,6.323,6.3399,6.3399,6.3399,6.3399,6.3399,6.3399,6.2829,6.2917,6.2921,6.3023,6.3044,6.3115,6.3141,6.3176,6.3205,6.3291,6.3341,6.3354,6.3384,6.3446,6.3501,6.3505,6.3529,6.3558,6.3559,6.3424,6.3406,6.3389,6.3368,6.3563,6.3563,6.3698,6.3699,6.37]},{"header":{"parameterUnit":"m.s-1","parameterCategory":1,"la1":30.2991,"la2":30.254,"lo1":-89.0895,"lo2":-89.0444,"dy":0.0017,"dx":0.0017,"nx":28,"ny":28,"refTime":"2024-09-26T09:00:00:Z","depth":0,"parameterNumber":3,"parameterNumberName":"V-component_of_WINDS"},"data":[0,0,0,0,0,0,0,0,0,0,0,0,0,0,0,0,0,0,0,0,0,0,0,0,0,0,0,0,0,0,0,0,0,0,0,0,0,0,0,0,0,0,0,0,0,0,0,0,0,0,0,0,0,0,0,0,0,0,0.0922,0.0922,0,0.0966,0.0967,0.0967,0.0979,0.0978,0.0978,0.0978,0.1024,0.1026,0.1027,0,0,0,0,0,0,0,0,0,0,0,0,0,0.0846,0.0847,0.0922,0.0922,0.0923,0.0966,0.0967,0.0967,0.0979,0.0978,0.0978,0.0978,0.1024,0.1026,0.1028,0,0,0,0,0,0,0,0,0,0,0,0,0,0.0883,0.0848,0.0922,0.0934,0.0935,0.0966,0.0967,0.0968,0.0979,0.0978,0.0978,0.0978,0.1023,0.1026,0.1028,0.105,0,0,0.1035,0.1036,0,0,0,0,0,0,0,0,0.0881,0.0886,0.0931,0.0933,0.0935,0.0966,0.0957,0.0995,0.0979,0.0962,0.0978,0.0977,0.1006,0.1009,0.1019,0.1052,0.1054,0.1035,0.1036,0.1037,0.1038,0,0,0,0,0,0,0,0.0879,0.0884,0.0939,0.0932,0.0934,0.0937,0.0942,0.0964,0.0986,0.0964,0.0965,0.097,0.1006,0.1016,0.102,0.1055,0.1035,0.1037,0.1038,0.1039,0.1107,0.1108,0,0,0,0,0,0,0.0874,0.0882,0.0938,0.0941,0.0906,0.0938,0.0944,0.0957,0.0986,0.099,0.097,0.097,0.1013,0.1017,0.1021,0.1048,0.1037,0.1039,0.1041,0.1107,0.1107,0.1108,0,0,0,0,0,0,0.0872,0.0879,0.0936,0.0912,0.0919,0.094,0.0954,0.0958,0.0968,0.099,0.0994,0.0976,0.1013,0.1018,0.1042,0.105,0.104,0.1042,0.1106,0.1107,0.1108,0.1103,0,0,0,0,0,0,0.087,0.0878,0.0887,0.0912,0.092,0.0957,0.0955,0.0959,0.0972,0.0972,0.0997,0.1001,0.1013,0.1039,0.1045,0.1053,0.1044,0.1106,0.1107,0.1107,0.1103,0.1103,0.1104,0,0,0,0,0,0.0867,0.0885,0.0888,0.0894,0.0932,0.0957,0.0962,0.0975,0.0972,0.0981,0.0995,0.1,0.1048,0.1041,0.1048,0.1057,0.1105,0.1106,0.1107,0.1102,0.1103,0.1104,0,0,0,0,0,0,0.0861,0.0888,0.0892,0.0918,0.0935,0.0959,0.0971,0.0976,0.0994,0.0994,0.1009,0.1015,0.1038,0.105,0.1042,0.1079,0.1077,0.1079,0.1071,0.1072,0.1073,0.1069,0.1046,0,0,0,0,0,0.0863,0.0881,0.0903,0.0924,0.0932,0.095,0.0961,0.0969,0.0988,0.0996,0.1012,0.1029,0.1048,0.1061,0.108,0.1104,0.1109,0.1113,0.1114,0.1115,0.1117,0.1129,0.1131,0.1111,0.1111,0.1111,0,0,0.0866,0.0883,0.0894,0.0923,0.0937,0.0955,0.0956,0.0975,0.0989,0.0999,0.1022,0.1034,0.1055,0.1079,0.109,0.109,0.1123,0.1116,0.1116,0.1118,0.1131,0.1132,0.1134,0.1112,0.1112,0.1112,0,0,0.0882,0.0897,0.0915,0.0929,0.095,0.0961,0.0966,0.0989,0.0997,0.102,0.1028,0.1044,0.1076,0.1091,0.1102,0.1121,0.1126,0.1126,0.1131,0.1143,0.1145,0.1146,0.1152,0.1154,0.1128,0.1128,0.1128,0,0.0884,0.0911,0.0924,0.0942,0.0954,0.0963,0.0981,0.0994,0.1021,0.1029,0.1027,0.1067,0.1082,0.1109,0.1113,0.1123,0.1127,0.1124,0.1143,0.1145,0.1146,0.1152,0.1155,0.1128,0.1128,0.1128,0.1128,0,0.0912,0.0931,0.0943,0.0967,0.0981,0.0999,0.1014,0.1026,0.1032,0.1043,0.1066,0.1084,0.1106,0.1113,0.112,0.114,0.1139,0.114,0.1138,0.1148,0.1154,0.1156,0.1128,0.1128,0.1128,0.1128,0,0,0.0927,0.0956,0.096,0.0971,0.0994,0.1009,0.1027,0.1047,0.1057,0.1075,0.109,0.1116,0.1117,0.113,0.1138,0.1149,0.1161,0.1149,0.1149,0.115,0.1183,0.1182,0.1185,0.1164,0.1165,0.1165,0.1181,0,0.0945,0.0977,0.0988,0.1015,0.1032,0.1039,0.1055,0.107,0.1081,0.1096,0.1108,0.1126,0.1126,0.1134,0.1144,0.1157,0.1168,0.1156,0.1178,0.1179,0.1173,0.1188,0.1187,0.1202,0.1184,0.1184,0.1184,0,0.0971,0.0987,0.1016,0.1035,0.1043,0.1057,0.1076,0.1091,0.1108,0.1115,0.1128,0.1135,0.1154,0.115,0.1175,0.1167,0.1176,0.1183,0.1184,0.1187,0.1182,0.119,0.1207,0.1209,0.1188,0.1188,0.1188,0,0.0977,0.1007,0.1028,0.1036,0.106,0.1069,0.108,0.1097,0.1108,0.1124,0.1131,0.115,0.116,0.1174,0.1186,0.1182,0.121,0.1207,0.1215,0.1215,0.1221,0.1221,0.1239,0.1227,0.1227,0.1227,0.1227,0,0.0997,0.1013,0.1031,0.1043,0.1062,0.1074,0.1092,0.1102,0.1117,0.1131,0.1139,0.1152,0.1167,0.1182,0.1191,0.121,0.1215,0.122,0.1222,0.1219,0.1219,0.1226,0.1225,0.1228,0.1228,0.1228,0.1227,0,0.1008,0.102,0.1043,0.1062,0.1068,0.1081,0.1097,0.111,0.112,0.1137,0.1142,0.1158,0.1176,0.1189,0.1212,0.1218,0.1238,0.124,0.1232,0.1233,0.1241,0.124,0.1264,0.1268,0.1254,0.1254,0.1254,0,0.1019,0.1032,0.1053,0.1063,0.1073,0.1089,0.11,0.1111,0.1123,0.1142,0.1152,0.117,0.1185,0.1213,0.1227,0.1244,0.1247,0.1254,0.1249,0.1245,0.1246,0.1245,0.1246,0.1255,0.1255,0.1255,0.1255,0,0.1038,0.1043,0.1059,0.1076,0.1089,0.1103,0.1117,0.1125,0.1139,0.1151,0.1169,0.1181,0.1203,0.1221,0.1239,0.125,0.1254,0.1256,0.1259,0.1256,0.1251,0.1253,0.1234,0.1256,0.1256,0.1256,0.1256,0.1255,0.1049,0.1061,0.1076,0.1093,0.1105,0.1118,0.113,0.1141,0.1156,0.1175,0.1181,0.1199,0.1215,0.124,0.125,0.1264,0.1264,0.1268,0.1269,0.127,0.1269,0.1248,0.1267,0.1267,0.1267,0.1267,0.1267,0,0.1068,0.1078,0.1093,0.1113,0.1125,0.1128,0.1144,0.1154,0.117,0.1184,0.1198,0.1218,0.1235,0.1249,0.1266,0.1275,0.1277,0.1279,0.1278,0.128,0.1269,0.1265,0.1276,0.1276,0.1276,0.1276,0.1276,0.1276,0.1079,0.1098,0.1105,0.1129,0.1139,0.1157,0.1165,0.1177,0.1188,0.1209,0.1223,0.1232,0.1246,0.1263,0.1279,0.1282,0.1288,0.1289,0.1293,0.1282,0.1281,0.128,0.1276,0.129,0.129,0.1303,0.1303,0.1303]}]]